Total_Precipitation_Accumulation
0.07 0.06 0.06 0.05 0.05 0.04 0.04 0.04 0.08 0.17 0.31 0.48 0.65 0.75 0.81 0.81 0.61 0.41 0.30 0.29 0.33 0.33 0.26 0.20 0.16 0.14 0.13 0.13 0.10 0.08 0.07 0.07 0.06 0.06 0.06 0.06 0.06 0.06 0.06 0.05 0.04 0.02 0.01 0.01
0.04 0.04 0.05 0.10 0.11 0.11 0.14 0.16 0.19 0.33 0.56 0.83 0.95 0.93 0.94 0.90 0.72 0.53 0.44 0.42 0.37 0.33 0.29 0.26 0.24 0.22 0.20 0.19 0.17 0.16 0.14 0.13 0.13 0.12 0.12 0.11 0.09 0.07 0.05 0.03 0.02 0.01 0.01 0.01
0.04 0.05 0.07 0.16 0.17 0.15 0.20 0.25 0.29 0.42 0.58 0.78 0.87 0.92 0.97 1.03 0.92 0.69 0.57 0.53 0.47 0.43 0.40 0.39 0.38 0.35 0.34 0.33 0.30 0.27 0.26 0.25 0.24 0.22 0.19 0.14 0.07 0.04 0.02 0.02 0.01 0.01 0.01 0.01
0.03 0.05 0.14 0.17 0.12 0.16 0.23 0.27 0.32 0.35 0.44 0.55 0.59 0.62 0.63 0.66 0.67 0.62 0.56 0.54 0.54 0.56 0.56 0.53 0.49 0.45 0.43 0.41 0.39 0.37 0.36 0.34 0.30 0.24 0.17 0.09 0.05 0.03 0.02 0.02 0.02 0.01 0.01 0.01
0.05 0.08 0.15 0.20 0.10 0.09 0.18 0.31 0.31 0.31 0.29 0.32 0.31 0.31 0.34 0.38 0.41 0.46 0.55 0.60 0.62 0.62 0.59 0.53 0.47 0.45 0.46 0.46 0.44 0.39 0.34 0.27 0.18 0.12 0.07 0.04 0.03 0.02 0.02 0.02 0.01 0.01 0.01 0.01
0.10 0.16 0.24 0.27 0.11 0.06 0.14 0.40 0.38 0.37 0.33 0.32 0.33 0.34 0.30 0.30 0.32 0.36 0.39 0.40 0.39 0.36 0.34 0.35 0.36 0.36 0.34 0.32 0.27 0.21 0.14 0.08 0.05 0.04 0.03 0.02 0.02 0.02 0.02 0.01 0.01 0.01 0.01 0.01
0.17 0.24 0.30 0.14 0.05 0.11 0.29 0.45 0.51 0.43 0.33 0.28 0.27 0.25 0.22 0.21 0.22 0.23 0.23 0.22 0.20 0.20 0.23 0.25 0.24 0.21 0.19 0.16 0.12 0.08 0.04 0.03 0.02 0.01 0.01 0.01 0.01 0.01 0.01 0.01 0.02 0.02 0.02 0.02
0.23 0.31 0.37 0.14 0.09 0.20 0.30 0.36 0.38 0.29 0.20 0.15 0.09 0.06 0.06 0.06 0.08 0.09 0.10 0.11 0.10 0.11 0.12 0.12 0.10 0.08 0.08 0.07 0.04 0.03 0.02 0.02 0.01 0.01 0.01 0.01 0.01 0.02 0.02 0.03 0.03 0.03 0.03 0.03
0.23 0.32 0.30 0.16 0.15 0.20 0.26 0.35 0.29 0.19 0.11 0.06 0.03 0.02 0.02 0.03 0.05 0.06 0.06 0.06 0.06 0.06 0.06 0.07 0.06 0.06 0.06 0.05 0.04 0.04 0.04 0.04 0.02 0.02 0.01 0.01 0.01 0.02 0.03 0.04 0.03 0.03 0.03 0.03
0.09 0.18 0.18 0.16 0.16 0.16 0.17 0.22 0.18 0.14 0.10 0.05 0.01 0.01 0.02 0.03 0.04 0.04 0.04 0.05 0.05 0.05 0.06 0.07 0.06 0.07 0.08 0.07 0.07 0.09 0.10 0.07 0.04 0.04 0.03 0.02 0.02 0.02 0.03 0.04 0.02 0.02 0.03 0.03
0.07 0.14 0.19 0.23 0.16 0.12 0.12 0.13 0.13 0.13 0.11 0.05 0.01 0.02 0.03 0.03 0.03 0.03 0.04 0.05 0.05 0.06 0.07 0.06 0.05 0.06 0.07 0.08 0.10 0.13 0.12 0.08 0.04 0.03 0.03 0.03 0.04 0.03 0.02 0.03 0.01 0.01 0.02 0.02
0.10 0.13 0.20 0.27 0.19 0.12 0.16 0.17 0.16 0.13 0.10 0.07 0.04 0.03 0.03 0.04 0.05 0.05 0.05 0.05 0.05 0.05 0.04 0.03 0.03 0.03 0.04 0.06 0.07 0.09 0.09 0.06 0.03 0.02 0.03 0.03 0.05 0.07 0.03 0.00 0.00 0.00 0.00 0.01
0.06 0.06 0.10 0.11 0.10 0.10 0.13 0.17 0.18 0.16 0.13 0.10 0.08 0.08 0.08 0.07 0.06 0.05 0.04 0.04 0.03 0.02 0.01 0.01 0.01 0.01 0.02 0.03 0.02 0.03 0.03 0.02 0.01 0.02 0.02 0.03 0.05 0.09 0.11 0.05 0.01 0.00 0.00 0.01
0.02 0.03 0.06 0.09 0.12 0.11 0.14 0.18 0.16 0.14 0.15 0.16 0.13 0.10 0.08 0.05 0.04 0.03 0.03 0.01 0.01 0.00 0.00 0.00 0.00 0.00 0.00 0.01 0.01 0.01 0.01 0.01 0.01 0.01 0.02 0.03 0.03 0.04 0.07 0.09 0.08 0.05 0.02 0.01
0.02 0.04 0.08 0.13 0.17 0.16 0.17 0.20 0.17 0.13 0.13 0.14 0.10 0.06 0.04 0.04 0.03 0.02 0.01 0.01 0.01 0.00 0.00 0.00 0.00 0.00 0.00 0.00 0.00 0.00 0.01 0.01 0.01 0.01 0.01 0.02 0.02 0.02 0.02 0.03 0.06 0.08 0.06 0.03
0.04 0.05 0.08 0.14 0.20 0.21 0.21 0.22 0.17 0.12 0.09 0.07 0.05 0.04 0.03 0.02 0.01 0.01 0.01 0.01 0.00 0.00 0.00 0.00 0.00 0.00 0.00 0.00 0.00 0.00 0.01 0.01 0.01 0.00 0.00 0.01 0.01 0.00 0.01 0.02 0.03 0.05 0.05 0.03
0.06 0.07 0.08 0.11 0.14 0.16 0.14 0.10 0.07 0.05 0.04 0.03 0.02 0.02 0.01 0.01 0.01 0.01 0.01 0.00 0.00 0.00 0.00 0.00 0.00 0.00 0.00 0.00 0.00 0.00 0.00 0.00 0.00 0.00 0.00 0.00 0.00 0.00 0.00 0.01 0.02 0.03 0.03 0.03
0.10 0.09 0.08 0.08 0.09 0.08 0.05 0.04 0.03 0.02 0.02 0.01 0.01 0.00 0.00 0.01 0.01 0.00 0.00 0.00 0.00 0.00 0.00 0.00 0.00 0.00 0.00 0.00 0.00 0.00 0.00 0.00 0.00 0.00 0.00 0.00 0.00 0.00 0.00 0.00 0.01 0.02 0.02 0.03
0.06 0.04 0.04 0.04 0.03 0.02 0.02 0.02 0.02 0.01 0.00 0.00 0.00 0.00 0.00 0.00 0.00 0.00 0.00 0.00 0.00 0.00 0.00 0.00 0.00 0.00 0.00 0.00 0.00 0.00 0.00 0.00 0.00 0.00 0.00 0.00 0.00 0.00 0.00 0.00 0.00 0.01 0.01 0.02
0.01 0.01 0.01 0.02 0.01 0.01 0.01 0.01 0.00 0.00 0.00 0.00 0.00 0.00 0.00 0.00 0.00 0.00 0.00 0.00 0.00 0.00 0.00 0.00 0.00 0.00 0.00 0.00 0.00 0.00 0.00 0.00 0.00 0.00 0.00 0.00 0.00 0.00 0.00 0.00 0.00 0.00 0.01 0.01
0.01 0.01 0.01 0.01 0.01 0.00 0.00 0.00 0.00 0.00 0.00 0.00 0.00 0.00 0.00 0.00 0.00 0.00 0.00 0.00 0.00 0.00 0.00 0.00 0.00 0.00 0.00 0.00 0.00 0.00 0.00 0.00 0.00 0.00 0.00 0.00 0.00 0.00 0.00 0.00 0.00 0.00 0.01 0.01
0.01 0.00 0.00 0.00 0.00 0.00 0.00 0.00 0.00 0.00 0.00 0.00 0.00 0.00 0.00 0.00 0.00 0.00 0.00 0.00 0.00 0.00 0.00 0.00 0.00 0.00 0.00 0.00 0.00 0.00 0.00 0.00 0.00 0.00 0.00 0.00 0.00 0.00 0.00 0.00 0.00 0.00 0.01 0.01
0.02 0.01 0.00 0.00 0.00 0.00 0.00 0.00 0.00 0.00 0.00 0.00 0.00 0.00 0.00 0.00 0.00 0.00 0.00 0.00 0.00 0.00 0.00 0.00 0.00 0.00 0.00 0.00 0.00 0.00 0.00 0.00 0.00 0.00 0.00 0.00 0.00 0.00 0.00 0.00 0.00 0.00 0.00 0.01
0.05 0.02 0.00 0.00 0.00 0.00 0.00 0.00 0.00 0.00 0.00 0.00 0.00 0.00 0.00 0.00 0.00 0.00 0.00 0.00 0.00 0.00 0.00 0.00 0.00 0.00 0.00 0.00 0.00 0.00 0.00 0.00 0.00 0.00 0.00 0.00 0.00 0.00 0.00 0.00 0.00 0.00 0.00 0.00
0.04 0.02 0.01 0.00 0.00 0.00 0.00 0.00 0.00 0.00 0.00 0.00 0.00 0.00 0.00 0.00 0.00 0.00 0.00 0.00 0.00 0.00 0.00 0.00 0.00 0.00 0.00 0.00 0.00 0.00 0.00 0.00 0.00 0.00 0.00 0.00 0.00 0.00 0.00 0.00 0.00 0.00 0.00 0.00
0.08 0.06 0.02 0.01 0.01 0.00 0.00 0.00 0.00 0.00 0.00 0.00 0.00 0.00 0.00 0.00 0.00 0.00 0.00 0.00 0.00 0.00 0.00 0.00 0.00 0.00 0.00 0.00 0.00 0.00 0.00 0.00 0.00 0.00 0.00 0.00 0.00 0.00 0.00 0.00 0.00 0.00 0.00 0.00
0.15 0.12 0.06 0.05 0.05 0.01 0.00 0.00 0.00 0.00 0.00 0.00 0.00 0.00 0.00 0.00 0.00 0.00 0.00 0.00 0.00 0.00 0.00 0.00 0.00 0.00 0.00 0.00 0.00 0.00 0.00 0.00 0.00 0.00 0.00 0.00 0.00 0.00 0.00 0.00 0.00 0.00 0.00 0.00